Location: Hannover
(52.3723°N, 9.7339°E)
Time: 10:47:51
(UTC+02:00)

ISS - Visible Passes

Search period start: 24 May 2019 00:00
Search period end: 03 June 2019 00:00
Orbit: 408 x 418 km, 51.6° (Epoch: 24 May)

Date Brightness Start Highest point End Pass type
(mag) Time Alt. Az. Time Alt. Az. Time Alt. Az.
24 May -3.4 01:05:20 10° W 01:08:22 44° SSW 01:08:22 44° SSW visible
24 May -3.8 22:39:11 10° W 22:42:32 79° S 22:45:54 10° E visible
25 May -3.8 00:15:50 10° W 00:19:08 58° SSW 00:20:18 34° SE visible
25 May -1.2 01:52:53 10° W 01:53:07 11° W 01:53:07 11° W visible
25 May -3.8 23:26:20 10° W 23:29:41 69° S 23:32:18 15° ESE visible
26 May -2.3 01:03:09 10° W 01:05:06 23° WSW 01:05:06 23° WSW visible
26 May -3.8 22:36:50 10° W 22:40:12 78° S 22:43:34 10° E visible
27 May -3.2 00:13:33 10° W 00:16:40 36° SSW 00:17:08 34° S visible
27 May -3.5 23:23:59 10° W 23:27:14 48° SSW 23:29:11 21° SE visible
28 May -1.4 01:01:24 10° WSW 01:01:59 12° WSW 01:01:59 12° WSW visible
28 May -3.7 22:34:27 10° W 22:37:46 61° SSW 22:41:06 10° ESE visible
29 May -2.2 00:11:26 10° W 00:14:03 21° SSW 00:14:03 21° SSW visible
29 May -2.7 23:21:42 10° W 23:24:40 29° SSW 23:26:09 20° SSE visible
30 May -3.1 22:32:04 10° W 22:35:14 40° SSW 22:38:15 11° SE visible
31 May -1.3 00:10:12 10° WSW 00:11:04 11° SW 00:11:04 11° SW visible
31 May -1.8 23:19:43 10° WSW 23:21:54 16° SW 23:23:12 14° S visible
01 Jun -2.2 22:29:48 10° W 22:32:32 23° SSW 22:35:15 10° SSE visible
